Tracking 20232 objects as of 18-Jan-2020
HD Live streaming from Space Station
objects crossing your sky now

COSMOS 2251 DEB

Track COSMOS 2251 DEB now!
10-day predictions


NORAD ID: 35885
Int'l Code: 1993-036ATY
Perigee: 768.2 km
Apogee: 804.9 km
Inclination: 74.0 °
Period: 100.4 minutes
Semi major axis: 7157 km
RCS: 0.0099 m2 (small)
Launch date: June 16, 1993
Source: Commonwealth of Independent States (former USSR) (CIS)
Launch site: PLESETSK MISSILE AND SPACE COMPLEX (PKMTR)

Note: This is SATELLITE DEBRIS
aabbcc
Your satellite tracking list
Your tracking list is empty




NASA's NSSDC Master Catalog

Two Line Element Set (TLE):
1 35885U 93036ATY 20018.09120369 +.00000074 +00000-0 +36016-4 0  9992
2 35885 074.0303 286.6094 0025594 173.8826 186.2643 14.33689948555463
Source of the keplerian elements: AFSPC